Wetterdaten: Samstag, 31.10.2015
Datum Zeit Auen-Temp. Temp gefhlt Luftfeuchte Luftdruck Regen Wind Richtung Richtung Taupunkt Windben
31.10.2015 00:00 6,7 C 6,7 C 94 % 1023,9 hPa 0,0 mm 4,4 km/h (1 Bft) O 90 5,8 C 5,2 km/h (1 Bft)
31.10.2015 00:05 6,7 C 6,7 C 94 % 1023,9 hPa 0,0 mm 4,9 km/h (1 Bft) O-NO 67 5,8 C 5,4 km/h (1 Bft)
31.10.2015 00:10 6,7 C 6,7 C 94 % 1024,0 hPa 0,0 mm 4,7 km/h (1 Bft) O-SO 112 5,8 C 2,6 km/h (1 Bft)
31.10.2015 00:15 6,6 C 6,6 C 90 % 1024,0 hPa 0,0 mm 3,6 km/h (1 Bft) NO 45 5,1 C 3,6 km/h (1 Bft)
31.10.2015 00:20 6,6 C 6,6 C 94 % 1024,0 hPa 0,0 mm 2,8 km/h (1 Bft) O-NO 67 5,7 C 11,1 km/h (2 Bft)
31.10.2015 00:25 6,6 C 6,6 C 94 % 1024,0 hPa 0,0 mm 3,6 km/h (1 Bft) O 90 5,7 C 5,7 km/h (1 Bft)
31.10.2015 00:30 6,6 C 6,6 C 94 % 1023,9 hPa 0,0 mm 3,9 km/h (1 Bft) O-NO 67 5,7 C 3,6 km/h (1 Bft)
31.10.2015 00:35 6,6 C 6,6 C 94 % 1023,9 hPa 0,0 mm 4,1 km/h (1 Bft) NO 45 5,7 C 3,9 km/h (1 Bft)
31.10.2015 00:40 6,6 C 6,6 C 94 % 1023,9 hPa 0,0 mm 2,8 km/h (1 Bft) O-NO 67 5,7 C 3,9 km/h (1 Bft)
31.10.2015 00:45 6,6 C 6,6 C 94 % 1023,9 hPa 0,0 mm 3,6 km/h (1 Bft) N-NO 22 5,7 C 2,8 km/h (1 Bft)
31.10.2015 00:50 6,5 C 6,6 C 90 % 1024,1 hPa 0,0 mm 3,6 km/h (1 Bft) N-NO 22 5,0 C 8,5 km/h (2 Bft)
31.10.2015 00:55 6,5 C 6,6 C 90 % 1024,1 hPa 0,0 mm 3,4 km/h (1 Bft) O-NO 67 5,0 C 5,2 km/h (1 Bft)
31.10.2015 01:00 6,5 C 6,6 C 90 % 1024,1 hPa 0,0 mm 4,1 km/h (1 Bft) O-NO 67 5,0 C 8,3 km/h (2 Bft)
31.10.2015 01:05 6,5 C 6,5 C 94 % 1024,1 hPa 0,0 mm 5,2 km/h (1 Bft) O-NO 67 5,6 C 4,9 km/h (1 Bft)
31.10.2015 01:10 6,5 C 6,5 C 94 % 1024,1 hPa 0,0 mm 4,9 km/h (1 Bft) NO 45 5,6 C 3,1 km/h (1 Bft)
31.10.2015 01:15 6,5 C 6,5 C 94 % 1024,1 hPa 0,0 mm 2,8 km/h (1 Bft) O-NO 67 5,6 C 4,7 km/h (1 Bft)
31.10.2015 01:20 6,5 C 6,5 C 94 % 1024,1 hPa 0,0 mm 3,1 km/h (1 Bft) O-NO 67 5,6 C 4,7 km/h (1 Bft)
31.10.2015 01:25 6,5 C 6,5 C 94 % 1024,1 hPa 0,0 mm 3,1 km/h (1 Bft) NO 45 5,6 C 2,8 km/h (1 Bft)
31.10.2015 01:30 6,5 C 6,5 C 94 % 1023,9 hPa 0,0 mm 2,8 km/h (1 Bft) O-NO 67 5,6 C 2,6 km/h (1 Bft)
31.10.2015 01:35 6,5 C 6,5 C 94 % 1023,9 hPa 0,0 mm 2,8 km/h (1 Bft) O-NO 67 5,6 C 0,0 km/h (0 Bft)
31.10.2015 01:40 6,4 C 6,5 C 90 % 1023,9 hPa 0,0 mm 3,4 km/h (1 Bft) O 90 4,9 C 6,5 km/h (2 Bft)
31.10.2015 01:45 6,4 C 6,5 C 90 % 1023,9 hPa 0,0 mm 3,4 km/h (1 Bft) O-NO 67 4,9 C 2,6 km/h (1 Bft)
31.10.2015 01:50 6,4 C 6,5 C 90 % 1024,0 hPa 0,0 mm 2,8 km/h (1 Bft) O-NO 67 4,9 C 2,8 km/h (1 Bft)
31.10.2015 01:52 6,4 C 6,5 C 90 % 1024,0 hPa 0,0 mm 2,8 km/h (1 Bft) O-NO 67 4,9 C 2,8 km/h (1 Bft)
31.10.2015 01:55 6,4 C 6,5 C 90 % 1024,0 hPa 0,0 mm 2,6 km/h (1 Bft) O-NO 67 4,9 C 5,4 km/h (1 Bft)
31.10.2015 02:00 6,4 C 6,5 C 90 % 1024,0 hPa 0,0 mm 3,4 km/h (1 Bft) SO 135 4,9 C 4,1 km/h (1 Bft)
31.10.2015 02:05 6,4 C 6,4 C 94 % 1024,0 hPa 0,0 mm 3,6 km/h (1 Bft) O-NO 67 5,5 C 2,8 km/h (1 Bft)
31.10.2015 02:10 6,4 C 6,4 C 94 % 1023,9 hPa 0,0 mm 3,1 km/h (1 Bft) O 90 5,5 C 11,7 km/h (2 Bft)
31.10.2015 02:15 6,4 C 6,4 C 94 % 1023,9 hPa 0,0 mm 2,1 km/h (1 Bft) O-NO 67 5,5 C 4,1 km/h (1 Bft)
31.10.2015 02:20 6,4 C 6,4 C 94 % 1023,9 hPa 0,0 mm 2,8 km/h (1 Bft) O-NO 67 5,5 C 5,4 km/h (1 Bft)
31.10.2015 02:25 6,4 C 6,4 C 94 % 1023,9 hPa 0,0 mm 3,9 km/h (1 Bft) N-NO 22 5,5 C 6,7 km/h (2 Bft)
31.10.2015 02:30 6,4 C 6,4 C 94 % 1023,8 hPa 0,0 mm 4,4 km/h (1 Bft) O-NO 67 5,5 C 6,2 km/h (2 Bft)
31.10.2015 02:35 6,4 C 6,4 C 94 % 1023,8 hPa 0,0 mm 3,4 km/h (1 Bft) O-NO 67 5,5 C 0,0 km/h (0 Bft)
31.10.2015 02:40 6,4 C 6,4 C 94 % 1023,8 hPa 0,0 mm 2,8 km/h (1 Bft) O 90 5,5 C 4,1 km/h (1 Bft)
31.10.2015 02:45 6,4 C 6,4 C 94 % 1023,8 hPa 0,0 mm 2,6 km/h (1 Bft) S-SW 202 5,5 C 0,0 km/h (0 Bft)
31.10.2015 02:50 6,4 C 6,4 C 94 % 1023,7 hPa 0,0 mm 2,6 km/h (1 Bft) O-SO 112 5,5 C 5,7 km/h (1 Bft)
31.10.2015 02:55 6,4 C 6,4 C 94 % 1023,7 hPa 0,0 mm 1,8 km/h (1 Bft) NO 45 5,5 C 4,9 km/h (1 Bft)
31.10.2015 03:00 6,4 C 6,4 C 94 % 1023,7 hPa 0,0 mm 2,1 km/h (1 Bft) O-NO 67 5,5 C 5,4 km/h (1 Bft)
31.10.2015 03:05 6,4 C 6,4 C 94 % 1023,7 hPa 0,0 mm 3,6 km/h (1 Bft) NO 45 5,5 C 4,7 km/h (1 Bft)
31.10.2015 03:10 6,4 C 6,4 C 94 % 1023,8 hPa 0,0 mm 4,7 km/h (1 Bft) NO 45 5,5 C 4,9 km/h (1 Bft)
31.10.2015 03:15 6,3 C 6,3 C 90 % 1023,8 hPa 0,0 mm 5,4 km/h (1 Bft) O-NO 67 4,8 C 8,5 km/h (2 Bft)
31.10.2015 03:20 6,3 C 6,3 C 90 % 1023,8 hPa 0,0 mm 4,1 km/h (1 Bft) NO 45 4,8 C 12,2 km/h (2 Bft)
31.10.2015 03:25 6,3 C 6,4 C 90 % 1023,8 hPa 0,0 mm 3,4 km/h (1 Bft) O-SO 112 4,8 C 6,7 km/h (2 Bft)
31.10.2015 03:30 6,3 C 6,3 C 94 % 1023,5 hPa 0,0 mm 3,6 km/h (1 Bft) NO 45 5,4 C 0,0 km/h (0 Bft)
31.10.2015 03:35 6,3 C 6,3 C 94 % 1023,5 hPa 0,0 mm 2,6 km/h (1 Bft) N-NO 22 5,4 C 0,0 km/h (0 Bft)
31.10.2015 03:40 6,3 C 6,3 C 94 % 1023,5 hPa 0,0 mm 1,3 km/h (1 Bft) O-SO 112 5,4 C 2,8 km/h (1 Bft)
31.10.2015 03:45 6,3 C 6,3 C 94 % 1023,5 hPa 0,0 mm 2,8 km/h (1 Bft) N-NO 22 5,4 C 8,0 km/h (2 Bft)
31.10.2015 03:50 6,3 C 6,3 C 94 % 1023,6 hPa 0,0 mm 4,1 km/h (1 Bft) O 90 5,4 C 5,2 km/h (1 Bft)
31.10.2015 03:55 6,3 C 6,3 C 94 % 1023,6 hPa 0,0 mm 3,4 km/h (1 Bft) NO 45 5,4 C 4,9 km/h (1 Bft)
31.10.2015 04:00 6,2 C 6,3 C 90 % 1023,6 hPa 0,0 mm 2,3 km/h (1 Bft) NO 45 4,7 C 3,9 km/h (1 Bft)
31.10.2015 04:05 6,2 C 6,3 C 90 % 1023,6 hPa 0,0 mm 3,6 km/h (1 Bft) O-NO 67 4,7 C 4,9 km/h (1 Bft)
31.10.2015 04:10 6,2 C 6,3 C 90 % 1023,6 hPa 0,0 mm 3,9 km/h (1 Bft) O-NO 67 4,7 C 0,0 km/h (0 Bft)
31.10.2015 04:15 6,2 C 6,2 C 94 % 1023,6 hPa 0,0 mm 3,9 km/h (1 Bft) O 90 5,3 C 6,5 km/h (2 Bft)
31.10.2015 04:20 6,2 C 6,2 C 94 % 1023,6 hPa 0,0 mm 3,6 km/h (1 Bft) NO 45 5,3 C 4,9 km/h (1 Bft)
31.10.2015 04:25 6,2 C 6,2 C 94 % 1023,6 hPa 0,0 mm 2,8 km/h (1 Bft) NO 45 5,3 C 7,3 km/h (2 Bft)
31.10.2015 04:30 6,2 C 6,2 C 94 % 1023,8 hPa 0,0 mm 3,1 km/h (1 Bft) NO 45 5,3 C 6,0 km/h (2 Bft)
31.10.2015 04:35 6,2 C 6,2 C 94 % 1023,8 hPa 0,0 mm 3,9 km/h (1 Bft) NO 45 5,3 C 7,8 km/h (2 Bft)
31.10.2015 04:40 6,2 C 6,2 C 94 % 1023,8 hPa 0,0 mm 3,9 km/h (1 Bft) NO 45 5,3 C 4,4 km/h (1 Bft)
31.10.2015 04:45 6,1 C 6,2 C 90 % 1023,8 hPa 0,0 mm 2,8 km/h (1 Bft) O-NO 67 4,6 C 0,0 km/h (0 Bft)
31.10.2015 04:50 6,2 C 6,2 C 94 % 1023,6 hPa 0,0 mm 2,1 km/h (1 Bft) NO 45 5,3 C 4,7 km/h (1 Bft)
31.10.2015 04:55 6,1 C 6,2 C 90 % 1023,6 hPa 0,0 mm 3,1 km/h (1 Bft) O 90 4,6 C 0,0 km/h (0 Bft)
31.10.2015 05:00 6,1 C 6,2 C 90 % 1023,6 hPa 0,0 mm 2,8 km/h (1 Bft) NO 45 4,6 C 3,6 km/h (1 Bft)
31.10.2015 05:05 6,1 C 6,2 C 90 % 1023,6 hPa 0,0 mm 1,3 km/h (1 Bft) O-NO 67 4,6 C 3,1 km/h (1 Bft)
31.10.2015 05:10 6,1 C 6,2 C 90 % 1023,4 hPa 0,0 mm 2,1 km/h (1 Bft) NO 45 4,6 C 4,7 km/h (1 Bft)
31.10.2015 05:15 6,1 C 6,1 C 94 % 1023,4 hPa 0,0 mm 1,6 km/h (1 Bft) O 90 5,2 C 0,0 km/h (0 Bft)
31.10.2015 05:20 6,1 C 6,1 C 94 % 1023,4 hPa 0,0 mm 0,8 km/h (0 Bft) NO 45 5,2 C 0,0 km/h (0 Bft)
31.10.2015 05:25 6,1 C 6,1 C 94 % 1023,4 hPa 0,0 mm 0,8 km/h (0 Bft) N-NO 22 5,2 C 0,0 km/h (0 Bft)
31.10.2015 05:30 6,1 C 6,2 C 90 % 1023,8 hPa 0,0 mm 1,0 km/h (0 Bft) N-NO 22 4,6 C 6,7 km/h (2 Bft)
31.10.2015 05:35 6,1 C 6,2 C 90 % 1023,8 hPa 0,0 mm 1,3 km/h (1 Bft) O-NO 67 4,6 C 6,2 km/h (2 Bft)
31.10.2015 05:40 6,2 C 6,2 C 94 % 1023,8 hPa 0,0 mm 2,1 km/h (1 Bft) NO 45 5,3 C 7,3 km/h (2 Bft)
31.10.2015 05:45 6,2 C 6,2 C 94 % 1023,8 hPa 0,0 mm 3,1 km/h (1 Bft) O-NO 67 5,3 C 0,0 km/h (0 Bft)
31.10.2015 05:50 6,2 C 6,2 C 94 % 1023,8 hPa 0,0 mm 3,4 km/h (1 Bft) SO 135 5,3 C 2,6 km/h (1 Bft)
31.10.2015 05:55 6,2 C 6,2 C 94 % 1023,8 hPa 0,0 mm 2,1 km/h (1 Bft) O 90 5,3 C 2,8 km/h (1 Bft)
31.10.2015 06:00 6,2 C 6,2 C 94 % 1023,8 hPa 0,0 mm 0,8 km/h (0 Bft) O-SO 112 5,3 C 0,0 km/h (0 Bft)
31.10.2015 06:05 6,1 C 6,2 C 90 % 1023,8 hPa 0,0 mm 0,8 km/h (0 Bft) N-NW 337 4,6 C 0,0 km/h (0 Bft)
31.10.2015 06:10 6,1 C 6,1 C 94 % 1023,9 hPa 0,0 mm 1,6 km/h (1 Bft) O-NO 67 5,2 C 6,7 km/h (2 Bft)
31.10.2015 06:15 6,1 C 6,1 C 94 % 1023,9 hPa 0,0 mm 2,8 km/h (1 Bft) O-SO 112 5,2 C 4,1 km/h (1 Bft)
31.10.2015 06:20 6,1 C 6,1 C 94 % 1023,9 hPa 0,0 mm 2,3 km/h (1 Bft) O-NO 67 5,2 C 0,0 km/h (0 Bft)
31.10.2015 06:25 6,1 C 6,1 C 94 % 1023,9 hPa 0,0 mm 0,5 km/h (0 Bft) O 90 5,2 C 0,0 km/h (0 Bft)
31.10.2015 06:30 6,1 C 6,1 C 94 % 1023,9 hPa 0,0 mm 0,3 km/h (0 Bft) O-SO 112 5,2 C 0,0 km/h (0 Bft)
31.10.2015 06:35 6,1 C 6,1 C 94 % 1023,9 hPa 0,0 mm 1,0 km/h (0 Bft) NO 45 5,2 C 0,0 km/h (0 Bft)
31.10.2015 06:40 6,1 C 6,1 C 94 % 1023,9 hPa 0,0 mm 0,8 km/h (0 Bft) O-SO 112 5,2 C 0,0 km/h (0 Bft)
31.10.2015 06:45 6,1 C 6,1 C 94 % 1023,9 hPa 0,0 mm 0,3 km/h (0 Bft) N-NO 22 5,2 C 0,0 km/h (0 Bft)
31.10.2015 06:50 6,1 C 6,1 C 94 % 1024,0 hPa 0,0 mm 1,0 km/h (0 Bft) NO 45 5,2 C 4,1 km/h (1 Bft)
31.10.2015 06:55 6,1 C 6,1 C 94 % 1024,0 hPa 0,0 mm 1,8 km/h (1 Bft) NO 45 5,2 C 3,9 km/h (1 Bft)
31.10.2015 07:00 6,1 C 6,1 C 94 % 1024,0 hPa 0,0 mm 2,1 km/h (1 Bft) O-SO 112 5,2 C 4,9 km/h (1 Bft)
31.10.2015 07:05 6,1 C 6,1 C 94 % 1024,0 hPa 0,0 mm 1,0 km/h (0 Bft) NO 45 5,2 C 0,0 km/h (0 Bft)
31.10.2015 07:10 6,1 C 6,1 C 94 % 1024,1 hPa 0,0 mm 0,3 km/h (0 Bft) N-NO 22 5,2 C 0,0 km/h (0 Bft)
31.10.2015 07:15 6,0 C 6,1 C 90 % 1024,1 hPa 0,0 mm 0,0 km/h (0 Bft) S 180 4,5 C 0,0 km/h (0 Bft)
31.10.2015 07:20 6,0 C 6,1 C 90 % 1024,1 hPa 0,0 mm 0,5 km/h (0 Bft) NO 45 4,5 C 0,0 km/h (0 Bft)
31.10.2015 07:25 6,0 C 6,1 C 90 % 1024,1 hPa 0,0 mm 0,5 km/h (0 Bft) N-NO 22 4,5 C 4,1 km/h (1 Bft)
31.10.2015 07:30 6,1 C 6,1 C 94 % 1024,6 hPa 0,0 mm 0,5 km/h (0 Bft) O-SO 112 5,2 C 0,0 km/h (0 Bft)
31.10.2015 07:35 6,1 C 6,1 C 94 % 1024,6 hPa 0,0 mm 0,8 km/h (0 Bft) O-NO 67 5,2 C 3,1 km/h (1 Bft)
31.10.2015 07:40 6,1 C 6,2 C 90 % 1024,6 hPa 0,0 mm 0,5 km/h (0 Bft) NO 45 4,6 C 2,8 km/h (1 Bft)
31.10.2015 07:45 6,1 C 6,2 C 90 % 1024,6 hPa 0,0 mm 2,3 km/h (1 Bft) N-NO 22 4,6 C 2,8 km/h (1 Bft)
31.10.2015 07:50 6,1 C 6,2 C 90 % 1024,4 hPa 0,0 mm 3,1 km/h (1 Bft) NO 45 4,6 C 3,4 km/h (1 Bft)
31.10.2015 07:53 6,1 C 6,2 C 90 % 1024,4 hPa 0,0 mm 3,1 km/h (1 Bft) NO 45 4,6 C 3,4 km/h (1 Bft)
31.10.2015 07:55 6,2 C 6,2 C 94 % 1024,4 hPa 0,0 mm 2,8 km/h (1 Bft) N-NO 22 5,3 C 0,0 km/h (0 Bft)
31.10.2015 08:00 6,1 C 6,3 C 90 % 1024,4 hPa 0,0 mm 2,3 km/h (1 Bft) O-SO 112 4,6 C 0,0 km/h (0 Bft)
31.10.2015 08:05 6,0 C 6,2 C 90 % 1024,4 hPa 0,0 mm 0,5 km/h (0 Bft) NO 45 4,5 C 2,6 km/h (1 Bft)
31.10.2015 08:10 6,0 C 6,2 C 90 % 1024,8 hPa 0,0 mm 1,0 km/h (0 Bft) O-NO 67 4,5 C 0,0 km/h (0 Bft)
31.10.2015 08:15 6,1 C 6,3 C 90 % 1024,8 hPa 0,0 mm 1,0 km/h (0 Bft) W-NW 292 4,6 C 0,0 km/h (0 Bft)
31.10.2015 08:20 6,1 C 6,3 C 90 % 1024,8 hPa 0,0 mm 0,3 km/h (0 Bft) NO 45 4,6 C 5,2 km/h (1 Bft)
31.10.2015 08:25 6,1 C 6,3 C 90 % 1024,8 hPa 0,0 mm 2,6 km/h (1 Bft) N-NO 22 4,6 C 7,0 km/h (2 Bft)
31.10.2015 08:30 6,1 C 6,3 C 90 % 1024,7 hPa 0,0 mm 4,4 km/h (1 Bft) SO 135 4,6 C 5,7 km/h (1 Bft)
31.10.2015 08:35 6,1 C 6,3 C 90 % 1024,7 hPa 0,0 mm 3,9 km/h (1 Bft) O-NO 67 4,6 C 5,7 km/h (1 Bft)
31.10.2015 08:40 6,1 C 6,4 C 90 % 1024,7 hPa 0,0 mm 3,4 km/h (1 Bft) O-NO 67 4,6 C 6,0 km/h (2 Bft)
31.10.2015 08:45 6,1 C 6,4 C 90 % 1024,7 hPa 0,0 mm 3,1 km/h (1 Bft) O-SO 112 4,6 C 0,0 km/h (0 Bft)
31.10.2015 08:50 6,2 C 6,5 C 90 % 1024,6 hPa 0,0 mm 2,3 km/h (1 Bft) O-SO 112 4,7 C 3,1 km/h (1 Bft)
31.10.2015 08:55 6,3 C 6,7 C 90 % 1024,6 hPa 0,0 mm 0,8 km/h (0 Bft) NO 45 4,8 C 0,0 km/h (0 Bft)
31.10.2015 09:00 6,3 C 6,8 C 90 % 1024,6 hPa 0,0 mm 1,8 km/h (1 Bft) O 90 4,8 C 0,0 km/h (0 Bft)
31.10.2015 09:05 6,3 C 6,7 C 90 % 1024,6 hPa 0,0 mm 2,1 km/h (1 Bft) O-NO 67 4,8 C 5,4 km/h (1 Bft)
31.10.2015 09:10 6,3 C 6,8 C 90 % 1024,8 hPa 0,0 mm 1,8 km/h (1 Bft) O-NO 67 4,8 C 0,0 km/h (0 Bft)
31.10.2015 09:15 6,2 C 6,7 C 90 % 1024,8 hPa 0,0 mm 3,4 km/h (1 Bft) SO 135 4,7 C 0,0 km/h (0 Bft)
31.10.2015 09:20 6,2 C 6,8 C 90 % 1024,8 hPa 0,0 mm 3,1 km/h (1 Bft) O-NO 67 4,7 C 0,0 km/h (0 Bft)
31.10.2015 09:25 6,4 C 7,0 C 90 % 1024,8 hPa 0,0 mm 1,0 km/h (0 Bft) O-SO 112 4,9 C 0,0 km/h (0 Bft)
31.10.2015 09:30 6,5 C 7,2 C 90 % 1024,9 hPa 0,0 mm 0,8 km/h (0 Bft) N-NO 22 5,0 C 0,0 km/h (0 Bft)
31.10.2015 09:35 6,5 C 7,3 C 90 % 1024,9 hPa 0,0 mm 2,1 km/h (1 Bft) NO 45 5,0 C 7,8 km/h (2 Bft)
31.10.2015 09:40 6,5 C 7,2 C 90 % 1024,9 hPa 0,0 mm 2,8 km/h (1 Bft) NO 45 5,0 C 6,2 km/h (2 Bft)
31.10.2015 09:45 6,6 C 7,3 C 90 % 1024,9 hPa 0,0 mm 3,1 km/h (1 Bft) O-NO 67 5,1 C 3,6 km/h (1 Bft)
31.10.2015 09:50 6,6 C 7,4 C 90 % 1024,9 hPa 0,0 mm 3,4 km/h (1 Bft) N-NO 22 5,1 C 3,4 km/h (1 Bft)
31.10.2015 09:55 6,6 C 7,6 C 90 % 1024,9 hPa 0,0 mm 4,4 km/h (1 Bft) O 90 5,1 C 8,3 km/h (2 Bft)
31.10.2015 10:00 6,6 C 7,8 C 90 % 1024,9 hPa 0,0 mm 4,1 km/h (1 Bft) O-NO 67 5,1 C 3,4 km/h (1 Bft)
31.10.2015 10:05 6,6 C 7,8 C 90 % 1024,9 hPa 0,0 mm 4,4 km/h (1 Bft) NO 45 5,1 C 4,9 km/h (1 Bft)
31.10.2015 10:10 6,6 C 8,0 C 90 % 1025,1 hPa 0,0 mm 4,7 km/h (1 Bft) O-NO 67 5,1 C 6,7 km/h (2 Bft)
31.10.2015 10:15 6,6 C 8,3 C 90 % 1025,1 hPa 0,0 mm 3,4 km/h (1 Bft) NW 315 5,1 C 0,0 km/h (0 Bft)
31.10.2015 10:20 6,8 C 8,6 C 90 % 1025,1 hPa 0,0 mm 2,1 km/h (1 Bft) N-NO 22 5,3 C 3,4 km/h (1 Bft)
31.10.2015 10:25 7,1 C 9,2 C 90 % 1025,1 hPa 0,0 mm 1,8 km/h (1 Bft) NO 45 5,6 C 5,7 km/h (1 Bft)
31.10.2015 10:30 6,9 C 9,2 C 90 % 1025,0 hPa 0,0 mm 3,6 km/h (1 Bft) NO 45 5,4 C 6,2 km/h (2 Bft)
31.10.2015 10:35 6,8 C 8,8 C 90 % 1025,0 hPa 0,0 mm 6,5 km/h (2 Bft) O-NO 67 5,3 C 8,0 km/h (2 Bft)
31.10.2015 10:40 6,8 C 8,8 C 90 % 1025,0 hPa 0,0 mm 6,2 km/h (2 Bft) NO 45 5,3 C 6,2 km/h (2 Bft)
31.10.2015 10:45 6,9 C 8,7 C 90 % 1025,0 hPa 0,0 mm 5,2 km/h (1 Bft) NO 45 5,4 C 2,8 km/h (1 Bft)
31.10.2015 10:50 7,0 C 8,9 C 90 % 1025,4 hPa 0,0 mm 2,8 km/h (1 Bft) SO 135 5,5 C 0,0 km/h (0 Bft)
31.10.2015 10:55 7,2 C 9,3 C 90 % 1025,4 hPa 0,0 mm 2,3 km/h (1 Bft) NO 45 5,7 C 9,3 km/h (2 Bft)
31.10.2015 11:00 7,2 C 9,3 C 90 % 1025,4 hPa 0,0 mm 4,1 km/h (1 Bft) O-NO 67 5,7 C 3,4 km/h (1 Bft)
31.10.2015 11:05 7,3 C 9,7 C 90 % 1025,4 hPa 0,0 mm 3,6 km/h (1 Bft) NO 45 5,8 C 7,0 km/h (2 Bft)
31.10.2015 11:10 7,2 C 9,7 C 90 % 1025,4 hPa 0,0 mm 3,4 km/h (1 Bft) O-NO 67 5,7 C 6,7 km/h (2 Bft)
31.10.2015 11:15 7,3 C 9,7 C 90 % 1025,4 hPa 0,0 mm 4,1 km/h (1 Bft) O 90 5,8 C 0,0 km/h (0 Bft)
31.10.2015 11:20 7,3 C 9,8 C 90 % 1025,4 hPa 0,0 mm 2,8 km/h (1 Bft) O 90 5,8 C 4,7 km/h (1 Bft)
31.10.2015 11:25 7,5 C 10,2 C 90 % 1025,4 hPa 0,0 mm 1,8 km/h (1 Bft) SW 225 6,0 C 0,0 km/h (0 Bft)
31.10.2015 11:30 7,6 C 10,7 C 90 % 1025,5 hPa 0,0 mm 2,1 km/h (1 Bft) N-NO 22 6,1 C 6,2 km/h (2 Bft)
31.10.2015 11:35 7,8 C 11,1 C 90 % 1025,5 hPa 0,0 mm 1,3 km/h (1 Bft) N 360 6,3 C 0,0 km/h (0 Bft)
31.10.2015 11:40 8,0 C 11,6 C 90 % 1025,5 hPa 0,0 mm 1,8 km/h (1 Bft) NO 45 6,5 C 5,2 km/h (1 Bft)
31.10.2015 11:45 8,2 C 12,0 C 90 % 1025,5 hPa 0,0 mm 1,6 km/h (1 Bft) W-SW 247 6,7 C 0,0 km/h (0 Bft)
31.10.2015 11:50 8,5 C 12,5 C 90 % 1025,3 hPa 0,0 mm 1,8 km/h (1 Bft) N 360 7,0 C 4,1 km/h (1 Bft)
31.10.2015 11:55 8,6 C 12,7 C 90 % 1025,3 hPa 0,0 mm 1,6 km/h (1 Bft) SW 225 7,1 C 2,8 km/h (1 Bft)
31.10.2015 12:00 8,8 C 13,0 C 90 % 1025,3 hPa 0,0 mm 1,3 km/h (1 Bft) W 270 7,3 C 0,0 km/h (0 Bft)
31.10.2015 12:05 9,1 C 13,0 C 90 % 1025,3 hPa 0,0 mm 1,6 km/h (1 Bft) NW 315 7,5 C 2,6 km/h (1 Bft)
31.10.2015 12:10 9,2 C 13,0 C 90 % 1025,2 hPa 0,0 mm 1,8 km/h (1 Bft) O-SO 112 7,6 C 2,8 km/h (1 Bft)
31.10.2015 12:15 9,1 C 13,5 C 90 % 1025,2 hPa 0,0 mm 1,0 km/h (0 Bft) S 180 7,5 C 0,0 km/h (0 Bft)
31.10.2015 12:20 9,0 C 14,7 C 90 % 1025,2 hPa 0,0 mm 0,8 km/h (0 Bft) O-SO 112 7,4 C 0,0 km/h (0 Bft)
31.10.2015 12:25 9,0 C 16,0 C 90 % 1025,2 hPa 0,0 mm 1,6 km/h (1 Bft) N-NO 22 7,4 C 4,7 km/h (1 Bft)
31.10.2015 12:30 9,2 C 16,6 C 90 % 1025,4 hPa 0,0 mm 2,6 km/h (1 Bft) O-NO 67 7,6 C 5,2 km/h (1 Bft)
31.10.2015 12:35 9,3 C 17,6 C 90 % 1025,4 hPa 0,0 mm 2,1 km/h (1 Bft) N-NO 22 7,7 C 3,1 km/h (1 Bft)
31.10.2015 12:40 9,3 C 18,1 C 90 % 1025,4 hPa 0,0 mm 1,3 km/h (1 Bft) N-NO 22 7,7 C 7,8 km/h (2 Bft)
31.10.2015 12:45 9,6 C 17,9 C 90 % 1025,4 hPa 0,0 mm 3,1 km/h (1 Bft) N-NO 22 8,0 C 5,2 km/h (1 Bft)
31.10.2015 12:50 9,7 C 17,7 C 90 % 1025,0 hPa 0,0 mm 4,7 km/h (1 Bft) N-NW 337 8,1 C 7,0 km/h (2 Bft)
31.10.2015 12:55 9,9 C 17,2 C 90 % 1025,0 hPa 0,0 mm 5,4 km/h (1 Bft) O-NO 67 8,3 C 7,5 km/h (2 Bft)
31.10.2015 13:00 10,0 C 17,4 C 89 % 1025,0 hPa 0,0 mm 4,1 km/h (1 Bft) O-NO 67 8,3 C 0,0 km/h (0 Bft)
31.10.2015 13:05 10,0 C 17,8 C 89 % 1025,0 hPa 0,0 mm 2,1 km/h (1 Bft) N-NO 22 8,3 C 0,0 km/h (0 Bft)
31.10.2015 13:10 10,1 C 18,0 C 89 % 1025,4 hPa 0,0 mm 2,6 km/h (1 Bft) O-SO 112 8,4 C 3,1 km/h (1 Bft)
31.10.2015 13:15 11,1 C 18,2 C 89 % 1025,4 hPa 0,0 mm 2,1 km/h (1 Bft) SO 135 9,4 C 0,0 km/h (0 Bft)
31.10.2015 13:20 11,7 C 18,6 C 89 % 1025,4 hPa 0,0 mm 0,8 km/h (0 Bft) S-SO 157 9,9 C 0,0 km/h (0 Bft)
31.10.2015 13:25 12,4 C 19,4 C 88 % 1025,4 hPa 0,0 mm 0,3 km/h (0 Bft) O-NO 67 10,5 C 0,0 km/h (0 Bft)
31.10.2015 13:30 12,6 C 19,8 C 88 % 1025,6 hPa 0,0 mm 0,0 km/h (0 Bft) O-SO 112 10,7 C 0,0 km/h (0 Bft)
31.10.2015 13:35 12,9 C 19,6 C 87 % 1025,6 hPa 0,0 mm 0,5 km/h (0 Bft) O-SO 112 10,8 C 0,0 km/h (0 Bft)
31.10.2015 13:40 12,9 C 19,4 C 87 % 1025,6 hPa 0,0 mm 0,5 km/h (0 Bft) O-SO 112 10,8 C 0,0 km/h (0 Bft)
31.10.2015 13:45 13,2 C 19,2 C 86 % 1025,6 hPa 0,0 mm 1,3 km/h (1 Bft) NO 45 10,9 C 4,7 km/h (1 Bft)
31.10.2015 13:50 13,4 C 19,1 C 86 % 1025,8 hPa 0,0 mm 1,6 km/h (1 Bft) O-NO 67 11,1 C 0,0 km/h (0 Bft)
31.10.2015 13:54 13,4 C 19,1 C 86 % 1025,8 hPa 0,0 mm 1,6 km/h (1 Bft) O-NO 67 11,1 C 0,0 km/h (0 Bft)
31.10.2015 13:55 13,9 C 19,2 C 85 % 1025,8 hPa 0,0 mm 1,3 km/h (1 Bft) S-SO 157 11,4 C 0,0 km/h (0 Bft)
31.10.2015 14:00 13,8 C 19,2 C 84 % 1025,8 hPa 0,0 mm 1,3 km/h (1 Bft) S-SO 157 11,1 C 0,0 km/h (0 Bft)
31.10.2015 14:05 13,3 C 19,2 C 83 % 1025,8 hPa 0,0 mm 1,3 km/h (1 Bft) S-SO 157 10,5 C 0,0 km/h (0 Bft)
31.10.2015 14:10 13,1 C 19,4 C 82 % 1026,2 hPa 0,0 mm 1,6 km/h (1 Bft) O-NO 67 10,1 C 10,6 km/h (2 Bft)
31.10.2015 14:15 13,2 C 18,9 C 81 % 1026,2 hPa 0,0 mm 2,3 km/h (1 Bft) O-NO 67 10,0 C 3,4 km/h (1 Bft)
31.10.2015 14:20 13,3 C 18,8 C 81 % 1026,2 hPa 0,0 mm 2,8 km/h (1 Bft) O-SO 112 10,1 C 0,0 km/h (0 Bft)
31.10.2015 14:25 13,7 C 18,8 C 80 % 1026,2 hPa 0,0 mm 2,8 km/h (1 Bft) O-SO 112 10,3 C 0,0 km/h (0 Bft)
31.10.2015 14:30 13,8 C 18,9 C 79 % 1026,1 hPa 0,0 mm 0,8 km/h (0 Bft) SO 135 10,2 C 0,0 km/h (0 Bft)
31.10.2015 14:35 13,6 C 18,9 C 79 % 1026,1 hPa 0,0 mm 0,8 km/h (0 Bft) SO 135 10,0 C 0,0 km/h (0 Bft)
31.10.2015 14:40 13,7 C 18,9 C 79 % 1026,1 hPa 0,0 mm 0,8 km/h (0 Bft) SO 135 10,1 C 0,0 km/h (0 Bft)
31.10.2015 14:45 13,6 C 18,7 C 78 % 1026,1 hPa 0,0 mm 1,0 km/h (0 Bft) SO 135 9,8 C 0,0 km/h (0 Bft)
31.10.2015 14:50 13,3 C 18,9 C 78 % 1026,1 hPa 0,0 mm 1,6 km/h (1 Bft) O-NO 67 9,5 C 4,7 km/h (1 Bft)
31.10.2015 14:55 13,5 C 18,8 C 77 % 1026,1 hPa 0,0 mm 1,0 km/h (0 Bft) SO 135 9,5 C 0,0 km/h (0 Bft)
31.10.2015 15:00 13,2 C 18,7 C 76 % 1026,1 hPa 0,0 mm 1,8 km/h (1 Bft) O-NO 67 9,1 C 5,4 km/h (1 Bft)
31.10.2015 15:05 12,9 C 18,1 C 76 % 1026,1 hPa 0,0 mm 1,6 km/h (1 Bft) SO 135 8,8 C 0,0 km/h (0 Bft)
31.10.2015 15:10 12,9 C 17,4 C 77 % 1025,9 hPa 0,0 mm 1,0 km/h (0 Bft) O 90 9,0 C 0,0 km/h (0 Bft)
31.10.2015 15:15 12,3 C 16,5 C 77 % 1025,9 hPa 0,0 mm 0,8 km/h (0 Bft) O 90 8,4 C 0,0 km/h (0 Bft)
31.10.2015 15:20 12,2 C 16,3 C 77 % 1025,9 hPa 0,0 mm 0,8 km/h (0 Bft) NO 45 8,3 C 0,0 km/h (0 Bft)
31.10.2015 15:25 11,5 C 16,3 C 77 % 1025,9 hPa 0,0 mm 0,8 km/h (0 Bft) NO 45 7,6 C 0,0 km/h (0 Bft)
31.10.2015 15:30 11,3 C 13,9 C 78 % 1026,0 hPa 0,0 mm 0,5 km/h (0 Bft) O 90 7,6 C 0,0 km/h (0 Bft)
31.10.2015 15:35 10,9 C 12,5 C 78 % 1026,0 hPa 0,0 mm 0,5 km/h (0 Bft) SO 135 7,2 C 0,0 km/h (0 Bft)
31.10.2015 15:40 10,7 C 11,8 C 79 % 1026,0 hPa 0,0 mm 0,0 km/h (0 Bft) O-NO 67 7,2 C 4,9 km/h (1 Bft)
31.10.2015 15:45 10,7 C 11,1 C 79 % 1026,0 hPa 0,0 mm 0,5 km/h (0 Bft) S 180 7,2 C 2,6 km/h (1 Bft)
31.10.2015 15:50 10,5 C 10,7 C 79 % 1025,9 hPa 0,0 mm 0,5 km/h (0 Bft) SW 225 7,0 C 0,0 km/h (0 Bft)
31.10.2015 15:55 10,2 C 10,2 C 80 % 1025,9 hPa 0,0 mm 0,3 km/h (0 Bft) NO 45 6,9 C 5,4 km/h (1 Bft)
31.10.2015 16:00 10,2 C 10,1 C 80 % 1025,9 hPa 0,0 mm 0,8 km/h (0 Bft) NO 45 6,9 C 10,9 km/h (2 Bft)
31.10.2015 16:05 10,1 C 10,1 C 80 % 1025,9 hPa 0,0 mm 2,3 km/h (1 Bft) O 90 6,8 C 0,0 km/h (0 Bft)
31.10.2015 16:10 10,0 C 9,9 C 81 % 1025,8 hPa 0,0 mm 1,8 km/h (1 Bft) SO 135 6,9 C 0,0 km/h (0 Bft)
31.10.2015 16:15 10,0 C 9,8 C 81 % 1025,8 hPa 0,0 mm 1,0 km/h (0 Bft) N-NO 22 6,9 C 4,7 km/h (1 Bft)
31.10.2015 16:20 9,8 C 9,7 C 81 % 1025,8 hPa 0,0 mm 1,0 km/h (0 Bft) NW 315 6,7 C 0,0 km/h (0 Bft)
31.10.2015 16:25 9,6 C 9,5 C 82 % 1025,8 hPa 0,0 mm 0,3 km/h (0 Bft) O-SO 112 6,7 C 0,0 km/h (0 Bft)
31.10.2015 16:30 9,6 C 9,4 C 83 % 1025,8 hPa 0,0 mm 0,0 km/h (0 Bft) SO 135 6,9 C 0,0 km/h (0 Bft)
31.10.2015 16:35 9,5 C 9,3 C 83 % 1025,8 hPa 0,0 mm 0,3 km/h (0 Bft) O-SO 112 6,8 C 0,0 km/h (0 Bft)
31.10.2015 16:40 9,4 C 9,2 C 83 % 1025,8 hPa 0,0 mm 0,3 km/h (0 Bft) SO 135 6,7 C 0,0 km/h (0 Bft)
31.10.2015 16:45 9,1 C 8,9 C 83 % 1025,8 hPa 0,0 mm 0,3 km/h (0 Bft) O-SO 112 6,4 C 4,9 km/h (1 Bft)
31.10.2015 16:50 8,7 C 8,6 C 84 % 1025,9 hPa 0,0 mm 0,3 km/h (0 Bft) O 90 6,2 C 0,0 km/h (0 Bft)
31.10.2015 16:55 8,6 C 8,4 C 84 % 1025,9 hPa 0,0 mm 0,5 km/h (0 Bft) S-SO 157 6,1 C 0,0 km/h (0 Bft)
31.10.2015 17:00 8,4 C 8,2 C 84 % 1025,9 hPa 0,0 mm 0,5 km/h (0 Bft) SO 135 5,9 C 0,0 km/h (0 Bft)
31.10.2015 17:05 8,3 C 8,0 C 85 % 1025,9 hPa 0,0 mm 0,0 km/h (0 Bft) SO 135 5,9 C 0,0 km/h (0 Bft)
31.10.2015 17:10 8,1 C 7,9 C 86 % 1025,9 hPa 0,0 mm 0,0 km/h (0 Bft) SO 135 5,9 C 0,0 km/h (0 Bft)
31.10.2015 17:15 7,9 C 7,7 C 86 % 1025,9 hPa 0,0 mm 0,0 km/h (0 Bft) SO 135 5,7 C 0,0 km/h (0 Bft)
31.10.2015 17:20 7,8 C 7,6 C 86 % 1025,9 hPa 0,0 mm 0,0 km/h (0 Bft) S 180 5,6 C 0,0 km/h (0 Bft)
31.10.2015 17:25 7,7 C 7,4 C 87 % 1025,9 hPa 0,0 mm 0,0 km/h (0 Bft) S-SO 157 5,7 C 0,0 km/h (0 Bft)
31.10.2015 17:30 7,6 C 7,3 C 87 % 1026,3 hPa 0,0 mm 0,0 km/h (0 Bft) S 180 5,6 C 0,0 km/h (0 Bft)
31.10.2015 17:35 7,1 C 7,0 C 85 % 1026,3 hPa 0,0 mm 0,0 km/h (0 Bft) S-SO 157 4,8 C 0,0 km/h (0 Bft)
31.10.2015 17:40 7,1 C 7,1 C 85 % 1026,3 hPa 0,0 mm 0,0 km/h (0 Bft) S 180 4,8 C 0,0 km/h (0 Bft)
31.10.2015 17:45 7,1 C 6,9 C 88 % 1026,3 hPa 0,0 mm 0,0 km/h (0 Bft) S 180 5,2 C 0,0 km/h (0 Bft)
31.10.2015 17:50 6,6 C 6,6 C 85 % 1026,5 hPa 0,0 mm 0,0 km/h (0 Bft) O-SO 112 4,3 C 0,0 km/h (0 Bft)
31.10.2015 17:55 6,2 C 6,1 C 88 % 1026,5 hPa 0,0 mm 0,0 km/h (0 Bft) S 180 4,4 C 0,0 km/h (0 Bft)
31.10.2015 18:00 6,2 C 6,0 C 88 % 1026,5 hPa 0,0 mm 0,0 km/h (0 Bft) S-SO 157 4,4 C 0,0 km/h (0 Bft)
31.10.2015 18:05 6,2 C 6,0 C 88 % 1026,5 hPa 0,0 mm 0,0 km/h (0 Bft) S-SO 157 4,4 C 0,0 km/h (0 Bft)
31.10.2015 18:10 6,0 C 5,8 C 88 % 1026,6 hPa 0,0 mm 0,0 km/h (0 Bft) S-SO 157 4,2 C 0,0 km/h (0 Bft)
31.10.2015 18:15 6,5 C 6,3 C 86 % 1026,6 hPa 0,0 mm 0,0 km/h (0 Bft) SO 135 4,3 C 0,0 km/h (0 Bft)
31.10.2015 18:20 6,3 C 6,1 C 89 % 1026,6 hPa 0,0 mm 0,0 km/h (0 Bft) S-SW 202 4,6 C 0,0 km/h (0 Bft)
31.10.2015 18:25 5,5 C 5,5 C 89 % 1026,6 hPa 0,0 mm 0,0 km/h (0 Bft) SW 225 3,8 C 0,0 km/h (0 Bft)
31.10.2015 18:30 5,0 C 5,3 C 89 % 1026,6 hPa 0,0 mm 0,0 km/h (0 Bft) SW 225 3,3 C 0,0 km/h (0 Bft)
31.10.2015 18:35 4,8 C 4,8 C 89 % 1026,6 hPa 0,0 mm 0,0 km/h (0 Bft) SW 225 3,1 C 0,0 km/h (0 Bft)
31.10.2015 18:40 4,9 C 4,7 C 89 % 1026,6 hPa 0,0 mm 0,0 km/h (0 Bft) SW 225 3,2 C 0,0 km/h (0 Bft)
31.10.2015 18:45 5,0 C 4,7 C 89 % 1026,6 hPa 0,0 mm 0,0 km/h (0 Bft) SW 225 3,3 C 0,0 km/h (0 Bft)
31.10.2015 18:50 4,8 C 4,6 C 89 % 1026,7 hPa 0,0 mm 0,0 km/h (0 Bft) SW 225 3,1 C 0,0 km/h (0 Bft)
31.10.2015 18:55 4,4 C 4,3 C 89 % 1026,7 hPa 0,0 mm 0,0 km/h (0 Bft) SW 225 2,7 C 0,0 km/h (0 Bft)
31.10.2015 19:00 4,1 C 4,0 C 89 % 1026,7 hPa 0,0 mm 0,0 km/h (0 Bft) SW 225 2,5 C 0,0 km/h (0 Bft)
31.10.2015 19:05 4,1 C 3,9 C 89 % 1026,7 hPa 0,0 mm 0,0 km/h (0 Bft) SW 225 2,5 C 0,0 km/h (0 Bft)
31.10.2015 19:10 4,0 C 3,8 C 89 % 1026,5 hPa 0,0 mm 0,0 km/h (0 Bft) SW 225 2,4 C 0,0 km/h (0 Bft)
31.10.2015 19:15 4,0 C 3,7 C 89 % 1026,5 hPa 0,0 mm 0,0 km/h (0 Bft) S-SW 202 2,4 C 0,0 km/h (0 Bft)
31.10.2015 19:20 4,1 C 3,8 C 89 % 1026,5 hPa 0,0 mm 0,0 km/h (0 Bft) SW 225 2,5 C 0,0 km/h (0 Bft)
31.10.2015 19:25 3,6 C 3,4 C 90 % 1026,5 hPa 0,0 mm 0,0 km/h (0 Bft) SW 225 2,1 C 0,0 km/h (0 Bft)
31.10.2015 19:30 3,4 C 3,2 C 90 % 1026,6 hPa 0,0 mm 0,0 km/h (0 Bft) SW 225 1,9 C 0,0 km/h (0 Bft)
31.10.2015 19:35 3,2 C 3,0 C 90 % 1026,6 hPa 0,0 mm 0,0 km/h (0 Bft) SW 225 1,7 C 0,0 km/h (0 Bft)
31.10.2015 19:40 3,8 C 3,4 C 90 % 1026,6 hPa 0,0 mm 0,0 km/h (0 Bft) SW 225 2,3 C 0,0 km/h (0 Bft)
31.10.2015 19:45 3,4 C 3,1 C 90 % 1026,6 hPa 0,0 mm 0,0 km/h (0 Bft) SW 225 1,9 C 0,0 km/h (0 Bft)
31.10.2015 19:50 4,0 C 3,5 C 90 % 1026,4 hPa 0,0 mm 0,0 km/h (0 Bft) S-SW 202 2,5 C 0,0 km/h (0 Bft)
31.10.2015 19:54 3,1 C 2,9 C 90 % 1026,4 hPa 0,0 mm 0,0 km/h (0 Bft) SW 225 1,6 C 0,0 km/h (0 Bft)
31.10.2015 19:55 3,1 C 2,9 C 90 % 1026,4 hPa 0,0 mm 0,0 km/h (0 Bft) SW 225 1,6 C 0,0 km/h (0 Bft)
31.10.2015 20:00 2,8 C 2,7 C 91 % 1026,4 hPa 0,0 mm 0,0 km/h (0 Bft) SW 225 1,5 C 0,0 km/h (0 Bft)
31.10.2015 20:05 2,9 C 2,7 C 91 % 1026,4 hPa 0,0 mm 0,0 km/h (0 Bft) SW 225 1,6 C 0,0 km/h (0 Bft)
31.10.2015 20:10 3,1 C 2,8 C 90 % 1026,6 hPa 0,0 mm 0,0 km/h (0 Bft) SW 225 1,6 C 0,0 km/h (0 Bft)
31.10.2015 20:15 2,7 C 2,5 C 91 % 1026,6 hPa 0,0 mm 0,0 km/h (0 Bft) SW 225 1,4 C 0,0 km/h (0 Bft)
31.10.2015 20:20 2,8 C 2,5 C 92 % 1026,6 hPa 0,0 mm 0,0 km/h (0 Bft) SW 225 1,6 C 0,0 km/h (0 Bft)
31.10.2015 20:25 2,7 C 2,4 C 92 % 1026,6 hPa 0,0 mm 0,0 km/h (0 Bft) SW 225 1,5 C 0,0 km/h (0 Bft)
31.10.2015 20:30 2,6 C 2,4 C 92 % 1026,6 hPa 0,0 mm 0,0 km/h (0 Bft) SW 225 1,4 C 0,0 km/h (0 Bft)
31.10.2015 20:35 2,3 C 2,2 C 92 % 1026,6 hPa 0,0 mm 0,0 km/h (0 Bft) SW 225 1,1 C 0,0 km/h (0 Bft)
31.10.2015 20:40 2,3 C 2,1 C 92 % 1026,6 hPa 0,0 mm 0,0 km/h (0 Bft) SW 225 1,1 C 0,0 km/h (0 Bft)
31.10.2015 20:45 2,7 C 2,4 C 92 % 1026,6 hPa 0,0 mm 0,0 km/h (0 Bft) SW 225 1,5 C 0,0 km/h (0 Bft)
31.10.2015 20:50 2,3 C 2,2 C 92 % 1026,8 hPa 0,0 mm 0,0 km/h (0 Bft) S 180 1,1 C 0,0 km/h (0 Bft)
31.10.2015 20:55 2,2 C 2,1 C 92 % 1026,8 hPa 0,0 mm 0,0 km/h (0 Bft) SW 225 1,0 C 0,0 km/h (0 Bft)
31.10.2015 21:01 1,9 C 1,8 C 92 % 1026,8 hPa 0,0 mm 0,0 km/h (0 Bft) SW 225 0,7 C 0,0 km/h (0 Bft)
31.10.2015 21:05 2,0 C 1,8 C 92 % 1026,8 hPa 0,0 mm 0,0 km/h (0 Bft) SW 225 0,8 C 0,0 km/h (0 Bft)
31.10.2015 21:10 2,5 C 2,1 C 92 % 1026,9 hPa 0,0 mm 0,0 km/h (0 Bft) SW 225 1,3 C 0,0 km/h (0 Bft)
31.10.2015 21:15 2,0 C 1,7 C 92 % 1026,9 hPa 0,0 mm 0,0 km/h (0 Bft) S 180 0,8 C 0,0 km/h (0 Bft)
31.10.2015 21:20 1,9 C 1,7 C 92 % 1026,9 hPa 0,0 mm 0,0 km/h (0 Bft) S 180 0,7 C 0,0 km/h (0 Bft)
31.10.2015 21:25 2,0 C 1,7 C 92 % 1026,9 hPa 0,0 mm 0,0 km/h (0 Bft) W-SW 247 0,8 C 0,0 km/h (0 Bft)
31.10.2015 21:30 2,0 C 1,7 C 92 % 1026,6 hPa 0,0 mm 0,0 km/h (0 Bft) W-SW 247 0,8 C 0,0 km/h (0 Bft)
31.10.2015 21:35 1,7 C 1,5 C 93 % 1026,6 hPa 0,0 mm 0,0 km/h (0 Bft) W-SW 247 0,7 C 0,0 km/h (0 Bft)
31.10.2015 21:40 2,0 C 1,7 C 93 % 1026,6 hPa 0,0 mm 0,0 km/h (0 Bft) S 180 1,0 C 0,0 km/h (0 Bft)
31.10.2015 21:45 2,1 C 1,7 C 93 % 1026,6 hPa 0,0 mm 0,0 km/h (0 Bft) S 180 1,1 C 0,0 km/h (0 Bft)
31.10.2015 21:50 2,1 C 1,7 C 93 % 1026,9 hPa 0,0 mm 0,0 km/h (0 Bft) S 180 1,1 C 0,0 km/h (0 Bft)
31.10.2015 21:55 1,8 C 1,5 C 93 % 1026,9 hPa 0,0 mm 0,0 km/h (0 Bft) S 180 0,8 C 0,0 km/h (0 Bft)
31.10.2015 22:00 1,8 C 1,5 C 93 % 1026,9 hPa 0,0 mm 0,0 km/h (0 Bft) S 180 0,8 C 0,0 km/h (0 Bft)
31.10.2015 22:05 1,8 C 1,5 C 93 % 1026,9 hPa 0,0 mm 0,0 km/h (0 Bft) W-SW 247 0,8 C 0,0 km/h (0 Bft)
31.10.2015 22:10 1,6 C 1,4 C 93 % 1027,2 hPa 0,0 mm 0,0 km/h (0 Bft) W-SW 247 0,6 C 0,0 km/h (0 Bft)
31.10.2015 22:15 1,4 C 1,2 C 93 % 1027,2 hPa 0,0 mm 0,0 km/h (0 Bft) W-SW 247 0,4 C 0,0 km/h (0 Bft)
31.10.2015 22:20 1,3 C 1,1 C 93 % 1027,2 hPa 0,0 mm 0,0 km/h (0 Bft) W-SW 247 0,3 C 0,0 km/h (0 Bft)
31.10.2015 22:25 1,2 C 1,0 C 93 % 1027,2 hPa 0,0 mm 0,0 km/h (0 Bft) S 180 0,2 C 0,0 km/h (0 Bft)
31.10.2015 22:30 1,2 C 1,0 C 93 % 1027,1 hPa 0,0 mm 0,0 km/h (0 Bft) SW 225 0,2 C 0,0 km/h (0 Bft)
31.10.2015 22:35 1,4 C 1,1 C 93 % 1027,1 hPa 0,0 mm 0,0 km/h (0 Bft) S 180 0,4 C 0,0 km/h (0 Bft)
31.10.2015 22:40 1,1 C 0,9 C 93 % 1027,1 hPa 0,0 mm 0,0 km/h (0 Bft) SW 225 0,1 C 0,0 km/h (0 Bft)
31.10.2015 22:45 0,9 C 0,7 C 93 % 1027,1 hPa 0,0 mm 0,0 km/h (0 Bft) SW 225 -0,1 C 0,0 km/h (0 Bft)
31.10.2015 22:50 0,8 C 0,6 C 93 % 1026,9 hPa 0,0 mm 0,0 km/h (0 Bft) SW 225 -0,2 C 0,0 km/h (0 Bft)
31.10.2015 22:55 1,2 C 0,8 C 93 % 1026,9 hPa 0,0 mm 0,0 km/h (0 Bft) SW 225 0,2 C 0,0 km/h (0 Bft)
31.10.2015 23:00 1,3 C 1,0 C 89 % 1026,9 hPa 0,0 mm 0,0 km/h (0 Bft) S 180 -0,3 C 0,0 km/h (0 Bft)
31.10.2015 23:05 1,0 C 0,8 C 93 % 1026,9 hPa 0,0 mm 0,0 km/h (0 Bft) W-SW 247 -0,0 C 0,0 km/h (0 Bft)
31.10.2015 23:10 1,0 C 0,8 C 93 % 1027,1 hPa 0,0 mm 0,0 km/h (0 Bft) S 180 -0,0 C 0,0 km/h (0 Bft)
31.10.2015 23:15 1,1 C 0,8 C 94 % 1027,1 hPa 0,0 mm 0,0 km/h (0 Bft) SW 225 0,2 C 0,0 km/h (0 Bft)
31.10.2015 23:20 1,0 C 0,8 C 94 % 1027,1 hPa 0,0 mm 0,0 km/h (0 Bft) W-SW 247 0,1 C 0,0 km/h (0 Bft)
31.10.2015 23:25 0,9 C 0,7 C 94 % 1027,1 hPa 0,0 mm 0,0 km/h (0 Bft) S-SO 157 0,0 C 0,0 km/h (0 Bft)
31.10.2015 23:30 0,9 C 0,7 C 94 % 1027,1 hPa 0,0 mm 0,0 km/h (0 Bft) W-NW 292 0,0 C 0,0 km/h (0 Bft)
31.10.2015 23:35 0,9 C 0,7 C 94 % 1027,1 hPa 0,0 mm 0,0 km/h (0 Bft) W 270 0,0 C 0,0 km/h (0 Bft)
31.10.2015 23:40 0,7 C 0,5 C 94 % 1027,1 hPa 0,0 mm 0,0 km/h (0 Bft) W 270 -0,2 C 0,0 km/h (0 Bft)
31.10.2015 23:45 0,7 C 0,4 C 94 % 1027,1 hPa 0,0 mm 0,0 km/h (0 Bft) W 270 -0,2 C 0,0 km/h (0 Bft)
31.10.2015 23:50 0,6 C 0,4 C 94 % 1027,1 hPa 0,0 mm 0,0 km/h (0 Bft) NW 315 -0,3 C 0,0 km/h (0 Bft)
31.10.2015 23:55 1,1 C 0,8 C 94 % 1027,1 hPa 0,0 mm 0,0 km/h (0 Bft) W-SW 247 0,2 C 0,0 km/h (0 Bft)
_ Min-Zeit 23:50 23:50 15:05 05:25 - 23:55 - - 23:00 23:55
Minimum _ 0,6 C 0,4 C 76 % 1023,4 hPa - 0,0 km/h (0 Bft) - - -0,3 C 0,0 km/h (0 Bft)
_ Max-Zeit 13:55 13:30 23:55 22:25 23:55 10:35 - - 13:55 03:20
Maximum _ 13,9 C 19,8 C 94 % 1027,2 hPa 0,0 mm 6,5 km/h
O-NO (2 Bft)
- - 11,4 C 12,2 km/h
NO (2 Bft)
Durchschnitt _ 6,5 C 7,6 C 90 % 1025,3 hPa #0,0 mm 1,6 km/h (1 Bft) O-NO - 4,9 C 2,2 km/h (1 Bft)